Modesto, CA

3:46 AM PDT on April 24, 2018 (GMT -0700)
Modesto City-County-Sham

Weather History for KMOD - June, 2013

Change the Weather History Date:

Friday, June 28, 2013

  Actual Average Record
Temperature  
Mean Temperature 88 °F -  
Max Temperature 104 °F 93 °F 111 °F (2009)
Min Temperature 71 °F 62 °F 48 °F (1949)
Degree Days  
Heating Degree Days 0 0  
Month to date heating degree days 0 0  
Since 1 June heating degree days 0 0  
Since 1 July heating degree days 2148 2168  
Cooling Degree Days 23 12  
Month to date cooling degree days 306 272  
Year to date cooling degree days 552 471  
Since 1 June cooling degree days 306 272  
Growing Degree Days 38 (Base 50)    
Moisture  
Dew Point 56 °F    
Average Humidity 43    
Maximum Humidity 66    
Minimum Humidity 20    
Precipitation  
Precipitation 0.00 in 0.00 in 0.41 in (1991)
Month to date precipitation 0.07 0.12  
Year to date precipitation 3.21 8.75  
Since 1 July precipitation 9.09  
Snow  
Snow 0.00 in - - ()
Month to date snowfall 0.0  
Since 1 June snowfall 0.0  
Since 1 July snowfall 0.0  
Snow Depth -    
Sea Level Pressure  
Sea Level Pressure 29.91 in    
Wind  
Wind Speed 8 mph (NNW)    
Max Wind Speed 16 mph    
Max Gust Speed 22 mph    
Visibility 10 miles    
Events      
T = Trace of Precipitation, MM = Missing Value Source: NWS Daily Summary

Daily Weather History Graph

Daily Weather History Graph

Search for Another Location

Airport or City:

Astronomy

Jun. 28, 2013 Rise Set
Actual Time 5:44 AM PDT 8:29 PM PDT
Civil Twilight 5:13 AM PDT 9:00 PM PDT
Nautical Twilight 4:34 AM PDT 9:39 PM PDT
Astronomical Twilight 3:50 AM PDT 10:23 PM PDT
Moon No Moon Rise 11:50 AM PDT (6/28)
Length of Visible Light 15h 46m
Length of Day
14h 44m
Waning Gibbous, 65% of the Moon is Illuminated
Jun 28
Waning Gibbous
Jun 29
Last Quarter
Jul 8
New
Jul 15
First Quarter
Jul 22
Full

Hourly Weather History & Observations

Time (PDT) Temp. Heat Index Dew Point Humidity Pressure Visibility Wind Dir Wind Speed Gust Speed Precip Events Conditions
12:53 AM 75.9 °F - 57.9 °F 54% 29.97 in 10.0 mi North 4.6 mph - N/A   Clear
1:53 AM 75.9 °F - 57.0 °F 52% 29.96 in 10.0 mi NNE 5.8 mph - N/A   Clear
2:53 AM 75.9 °F - 57.0 °F 52% 29.95 in 10.0 mi NNW 8.1 mph - N/A   Clear
3:53 AM 73.9 °F - 57.0 °F 55% 29.95 in 10.0 mi NW 8.1 mph - N/A   Clear
4:53 AM 71.1 °F - 57.9 °F 63% 29.95 in 10.0 mi NW 4.6 mph - N/A   Clear
5:53 AM 72.0 °F - 59.0 °F 64% 29.95 in 10.0 mi North 3.5 mph - N/A   Clear
6:53 AM 73.9 °F - 59.0 °F 59% 29.96 in 10.0 mi North 6.9 mph - N/A   Clear
7:53 AM 79.0 °F - 59.0 °F 50% 29.96 in 10.0 mi NNW 5.8 mph - N/A   Clear
8:53 AM 84.0 °F 83.8 °F 59.0 °F 43% 29.97 in 10.0 mi NW 9.2 mph - N/A   Clear
9:53 AM 87.1 °F 87.5 °F 62.1 °F 43% 29.96 in 10.0 mi NNW 6.9 mph - N/A   Clear
10:53 AM 91.9 °F 91.5 °F 60.1 °F 34% 29.95 in 10.0 mi NW 9.2 mph - N/A   Clear
11:53 AM 95.0 °F 95.2 °F 61.0 °F 32% 29.95 in 10.0 mi North 9.2 mph - N/A   Clear
12:53 PM 99.0 °F 98.1 °F 57.9 °F 25% 29.93 in 10.0 mi North 10.4 mph 16.1 mph N/A   Clear
1:53 PM 100.0 °F 99.7 °F 57.9 °F 25% 29.91 in 10.0 mi NNW 13.8 mph - N/A   Clear
2:53 PM 102.9 °F 101.4 °F 55.0 °F 20% 29.89 in 10.0 mi NW 11.5 mph 18.4 mph N/A   Clear
3:53 PM 102.0 °F 101.1 °F 57.0 °F 22% 29.87 in 10.0 mi NNW 16.1 mph - N/A   Clear
4:53 PM 102.9 °F 101.4 °F 54.0 °F 20% 29.85 in 10.0 mi NNW 9.2 mph - N/A   Clear
5:53 PM 104.0 °F 102.3 °F 54.0 °F 19% 29.85 in 10.0 mi North 10.4 mph - N/A   Clear
6:53 PM 100.9 °F 99.6 °F 55.0 °F 22% 29.84 in 10.0 mi NNW 9.2 mph - N/A   Clear
7:53 PM 99.0 °F - 48.9 °F 18% 29.84 in 10.0 mi NW 9.2 mph - N/A   Clear
8:53 PM 91.9 °F 90.0 °F 55.0 °F 29% 29.85 in 10.0 mi WNW 8.1 mph - N/A   Clear
9:53 PM 91.9 °F - 50.0 °F 24% 29.85 in 10.0 mi WNW 11.5 mph - N/A   Clear
10:53 PM 90.0 °F - 46.0 °F 22% 29.86 in 10.0 mi NW 10.4 mph - N/A   Clear
11:53 PM 87.1 °F - 48.0 °F 26% 29.86 in 10.0 mi NNW 5.8 mph - N/A   Clear